Date String (YYYY-MM-DD hh:mm:ss) UTC,Instrument flags,Ambient pressure (hPa),Sample flow (lpm),Bypass flow (lpm),Sample temperature (°C),Ambient temperature (°C),ASC tube jacket temperature (°C),LED temperature (°C),Box temperature (°C),Sample RH (%),Span deviation,Mass concentration (μg/m³),Mass concentration (μg/m³),Mass concentration (μg/m³)
DateTimeUTC,F1_M11,P_M11,Q1_M11,Q2_M11,T1_M11,T2_M11,T3_M11,T4_M11,T5_M11,U1_M11,ZSPAN_M11,X2_M11,X0_M11,X1_M11
2021-09-28 15:00:00,,0821.7,5.01,0.00,30.0,29.0,00.0,39.0,31.7,17.1,0002.3,0004.41,0016.39,0003.28
2021-09-28 15:01:00,,0821.7,4.99,0.00,30.0,29.1,00.0,39.0,31.8,17.3,0001.8,0004.27,0015.44,0003.24
2021-09-28 15:02:00,,0821.7,5.00,0.00,30.0,29.1,00.0,39.0,31.8,17.3,0001.9,0004.14,0013.92,0003.20
2021-09-28 15:03:00,,0821.7,5.01,0.00,30.0,29.2,00.0,39.1,31.9,17.0,0002.2,0004.02,0013.07,0003.15
2021-09-28 15:04:00,,0821.6,4.98,0.00,30.1,29.2,00.0,39.1,31.9,17.1,0002.9,0003.87,0011.69,0003.10
2021-09-28 15:05:00,,0821.7,5.01,0.00,30.1,29.2,00.0,39.1,31.9,16.8,0003.1,0003.79,0010.85,0003.05
2021-09-28 15:06:00,,0821.7,4.99,0.00,30.1,29.2,00.0,39.1,31.9,16.7,0003.6,0003.76,0010.11,0003.01
2021-09-28 15:07:00,,0821.7,5.01,0.00,30.1,29.3,00.0,39.1,31.9,16.8,0003.9,0003.79,0010.42,0002.99
2021-09-28 15:08:00,,0821.7,4.99,0.00,30.2,29.0,00.0,39.2,31.9,16.9,0003.7,0003.76,0010.21,0002.96
2021-09-28 15:09:00,,0821.7,5.01,0.00,30.1,27.2,00.0,39.1,31.4,17.1,0003.7,0003.69,0008.52,0002.93
2021-09-28 15:10:00,,0821.7,4.99,0.00,29.9,26.3,00.0,39.1,31.2,17.3,0003.7,0003.69,0008.01,0002.92
2021-09-28 15:11:00,,0821.7,5.00,0.00,29.9,26.6,00.0,39.1,31.3,17.4,0003.9,0003.72,0008.07,0002.93
2021-09-28 15:12:00,,0821.7,5.02,0.00,29.8,27.0,00.0,39.0,31.3,17.6,0004.0,0003.72,0008.56,0002.93
2021-09-28 15:13:00,,0821.7,5.00,0.00,29.8,27.4,00.0,39.0,31.3,17.8,0003.8,0003.73,0009.04,0002.93
2021-09-28 15:14:00,,0821.7,5.00,0.00,29.8,27.7,00.0,39.0,31.4,18.1,0004.0,0003.76,0009.15,0002.95
2021-09-28 15:15:00,,0821.8,4.99,0.00,29.8,28.0,00.0,39.0,31.4,18.2,0004.1,0003.76,0009.14,0002.96
2021-09-28 15:16:00,,0821.8,5.01,0.00,29.8,28.2,00.0,38.9,31.5,18.1,0003.8,0003.79,0009.33,0002.97
2021-09-28 15:17:00,,0821.8,4.99,0.00,29.8,28.4,00.0,38.9,31.6,17.8,0003.2,0003.81,0009.38,0002.97
2021-09-28 15:18:00,,0821.9,5.01,0.00,29.9,28.6,00.0,39.0,31.6,18.1,0002.8,0003.82,0009.21,0002.98
2021-09-28 15:19:00,,0821.8,4.99,0.00,29.9,28.7,00.0,39.0,31.7,20.4,0002.5,0003.92,0010.35,0003.08
2021-09-28 15:20:00,,0821.8,5.01,0.00,29.9,28.8,00.0,39.0,31.7,20.6,0002.5,0004.26,0012.06,0003.21
2021-09-28 15:21:00,,0821.8,5.00,0.00,29.9,28.9,00.0,39.0,31.7,20.1,0002.5,0004.60,0013.50,0003.31
2021-09-28 15:22:00,,0821.8,5.01,0.00,30.0,29.0,00.0,39.0,31.7,20.0,0002.6,0004.85,0014.25,0003.40
2021-09-28 15:23:00,,0821.9,5.00,0.00,30.0,29.1,00.0,39.0,31.8,20.4,0002.7,0005.09,0015.79,0003.50
2021-09-28 15:24:00,,0821.8,5.00,0.00,30.0,29.1,00.0,39.0,31.9,19.9,0002.1,0005.29,0017.08,0003.57
2021-09-28 15:25:00,,0821.8,4.99,0.00,30.1,29.2,00.0,39.0,31.9,19.0,0002.0,0005.44,0017.99,0003.62
2021-09-28 15:26:00,,0821.9,5.00,0.00,30.1,29.2,00.0,39.1,31.9,18.7,0001.5,0005.57,0018.92,0003.65
2021-09-28 15:27:00,,0821.8,5.01,0.00,30.2,29.3,00.0,39.1,32.0,19.0,0001.3,0005.68,0019.84,0003.70
2021-09-28 15:28:00,,0821.8,4.99,0.00,30.2,29.3,00.0,39.1,32.0,19.0,0001.5,0005.80,0021.30,0003.75
2021-09-28 15:29:00,,0821.8,4.99,0.00,30.2,28.8,00.0,39.1,31.9,18.8,0001.6,0005.94,0022.33,0003.78
2021-09-28 15:30:00,,0821.8,5.00,0.00,30.1,27.0,00.0,39.1,31.4,19.2,0001.8,0006.03,0021.88,0003.79
2021-09-28 15:31:00,,0821.8,5.01,0.00,29.9,26.5,00.0,39.1,31.2,20.2,0001.9,0005.88,0021.27,0003.73
2021-09-28 15:32:00,,0821.8,5.01,0.00,29.9,26.9,00.0,39.1,31.4,21.1,0002.0,0005.86,0020.53,0003.73
2021-09-28 15:33:00,,0821.8,4.99,0.00,29.8,27.3,00.0,39.0,31.4,21.1,0001.8,0005.95,0022.64,0003.76
2021-09-28 15:34:00,,0821.8,4.99,0.00,29.8,27.7,00.0,39.0,31.4,20.9,0001.8,0006.13,0024.16,0003.78
2021-09-28 15:35:00,,0821.8,5.01,0.00,29.8,28.0,00.0,39.0,31.5,20.5,0001.9,0006.14,0023.90,0003.78
2021-09-28 15:36:00,,0821.8,5.00,0.00,29.9,28.3,00.0,39.0,31.6,20.6,0001.7,0006.24,0024.49,0003.80
2021-09-28 15:37:00,,0821.8,4.99,0.00,29.9,28.5,00.0,39.0,31.6,20.7,0001.6,0006.44,0025.20,0003.85
2021-09-28 15:38:00,,0821.8,5.01,0.00,29.9,28.6,00.0,39.0,31.7,20.6,0001.7,0006.69,0025.68,0003.90
2021-09-28 15:39:00,,0821.8,4.99,0.00,29.9,28.8,00.0,39.0,31.7,20.8,0002.3,0006.85,0027.05,0003.94
2021-09-28 15:40:00,,0821.8,4.99,0.00,30.0,28.9,00.0,39.0,31.8,20.9,0002.5,0006.96,0028.02,0003.99
2021-09-28 15:41:00,,0821.8,5.01,0.00,30.0,29.0,00.0,39.0,31.8,21.0,0002.2,0007.07,0029.50,0004.04
2021-09-28 15:42:00,,0821.8,4.99,0.00,30.0,29.1,00.0,39.0,31.9,20.9,0002.0,0007.27,0030.72,0004.11
2021-09-28 15:43:00,,0821.8,5.00,0.00,30.1,29.2,00.0,39.0,31.9,20.5,0002.0,0007.29,0030.97,0004.12
2021-09-28 15:44:00,,0821.8,5.01,0.00,30.1,29.2,00.0,39.1,32.0,20.5,0001.6,0007.25,0031.37,0004.08
2021-09-28 15:45:00,,0821.8,5.00,0.00,30.2,29.3,00.0,39.1,32.0,20.6,0000.9,0007.17,0029.07,0004.05
2021-09-28 15:46:00,,0821.8,4.99,0.00,30.2,28.8,00.0,39.1,31.9,20.6,0001.0,0007.17,0029.25,0004.06
2021-09-28 15:47:00,,0821.8,5.00,0.00,30.1,27.0,00.0,39.1,31.4,20.7,0001.1,0007.24,0029.74,0004.08
2021-09-28 15:48:00,,0821.8,4.99,0.00,29.9,26.4,00.0,39.1,31.2,20.6,0001.3,0007.23,0028.98,0004.09
2021-09-28 15:49:00,,0821.7,5.00,0.00,29.8,26.8,00.0,39.1,31.3,20.3,0001.5,0007.06,0029.09,0004.07
2021-09-28 15:50:00,,0821.7,5.01,0.00,29.8,27.2,00.0,39.0,31.3,20.6,0000.8,0006.99,0027.82,0004.05
2021-09-28 15:51:00,,0821.7,5.01,0.00,29.8,27.6,00.0,39.0,31.4,20.8,0000.2,0006.95,0026.98,0004.04
2021-09-28 15:52:00,,0821.7,5.00,0.00,29.8,27.9,00.0,39.0,31.5,21.1,0000.0,0006.93,0026.49,0004.06
2021-09-28 15:53:00,,0821.7,4.99,0.00,29.8,28.2,00.0,38.9,31.5,21.5,0000.0,0006.97,0027.44,0004.06
2021-09-28 15:54:00,,0821.7,4.99,0.00,29.8,28.4,00.0,38.9,31.6,21.5,0000.0,0006.98,0028.86,0004.08
2021-09-28 15:55:00,,0821.7,4.99,0.00,29.9,28.6,00.0,38.9,31.7,21.2,0000.0,0007.03,0028.23,0004.11
2021-09-28 15:56:00,,0821.7,5.00,0.00,29.9,28.8,00.0,38.9,31.7,21.0,0000.0,0007.07,0029.71,0004.14
2021-09-28 15:57:00,,0821.7,5.01,0.00,30.0,28.9,00.0,39.0,31.8,20.4,0000.0,0007.03,0028.90,0004.14
2021-09-28 15:58:00,,0821.7,4.99,0.00,30.0,29.0,00.0,39.0,31.8,20.3,0000.0,0006.95,0029.10,0004.13
2021-09-28 15:59:00,,0821.7,5.00,0.00,30.0,29.1,00.0,39.0,31.9,19.4,0000.0,0006.80,0030.44,0004.11
